map of DEL home
Great Circle Mapper logo
DEL - Airport
Location
City:  New Delhi, India
Name:Indira Gandhi International Airport
Old (Alt.):Palam Airport
ICAO / IATA:VIDP / DEL

Details
Type:Airport (Aerodrome, Airfield)
Use:Public/Civil, International (customs port of entry)
Latitude:2834'07"N (28.568728)
Longitude:7706'44"E (77.112136)
Elevation:777 ft (237 m)
Runways:3
Longest:14534 ft (4430 m), paved

Time
Time Zone:UTC+5:30
Local Time:

Weather
METAR:VIDP 210730Z 31011KT 5000 HZ NSC 34/19 Q1005 NOSIG
TAF:VIDP 210300Z 2106/2212 29010KT 4000 HZ FEW040
BECMG 2107/2109 5000 HZ
BECMG 2112/2114 27006KT 4000 HZ NSC
BECMG 2120/2122 2500 BR
BECMG 2203/2205 29010KT 3500 HZ
BECMG 2206/2208 5000 HZ FEW040

Related Locations
Nearby:
Farthest:IPC: 12034 mi / 19367 km
Easter Island (Isla de Pascua, Rapa Nui) [Mataveri Intl], VS, CL

Find:

   beyond  
but within

Other Information
Maps:
NOTAMs:
Links:
Sources:

  
flag of India   

Sectional Chart

Flight Planning
at skyvector.com

Satellite Image

Google Maps Satellite View

 

Copyright © 2004-2014 Karl L. Swartz. All rights reserved.
The Great Circle Mapper name and logo are trademarks of the Great Circle Mapper.
All other trademarks mentioned herein belong to their respective owners.
Please see credits for attibutions and further copyright information.

  Follow gcmap on Facebook Follow gcmap on Twitter

hCard Microformat

Geo Microformat